Location: Appleton
(44.2618°N, 88.4157°W)
Time: 16:38:11
(UTC+00:00)

A-11 Canister half - Visible Passes

Search period start: 27 February 2021 00:00
Search period end: 09 March 2021 00:00
Orbit: 1516 x 1684 km, 47.2° (Epoch: 26 February)

Date Brightness Start Highest point End Pass type
(mag) Time Alt. Az. Time Alt. Az. Time Alt. Az.
27 Feb 10.9 00:45:13 10° W 00:52:34 25° SW 00:59:45 10° S visible
28 Feb 10.9 00:22:08 10° WNW 00:29:45 27° SW 00:37:12 10° S visible
28 Feb 10.9 23:59:03 10° WNW 00:06:56 29° SW 00:14:38 10° S visible
